Weather History for Kirksville, MO

Change the Weather History Date:

Sunday, October 19, 2014

  Actual Average Record
Temperature  
Mean Temperature 50 °F 52 °F  
Max Temperature 64 °F 63 °F 85 °F (1953)
Min Temperature 35 °F 41 °F 26 °F (1925)
Degree Days  
Heating Degree Days 15 13  
Month to date heating degree days 206 197  
Since 1 July heating degree days 312 304  
Cooling Degree Days 0 0  
Month to date cooling degree days 0 10  
Year to date cooling degree days 955 937  
Moisture  
Dew Point 42 °F    
Average Humidity 74    
Maximum Humidity 100    
Minimum Humidity 48    
Precipitation  
Precipitation 0.00 in 0.12 in 2.64 in (1934)
Month to date precipitation 4.02 2.12  
Year to date precipitation 42.18 33.64  
Sea Level Pressure  
Sea Level Pressure 30.14 in    
Wind  
Wind Speed 8 mph (SSW)    
Max Wind Speed 16 mph    
Max Gust Speed 22 mph    
Visibility 8 miles    
Events      
T = Trace of Precipitation, MM = Missing Value Source: NWS Daily Summary

Daily Weather History Graph

Daily Weather History Graph

Search for Another Location

Airport:

Trip Planner

Search our weather history database for the weather conditions in past years. The results will help you decide how hot, cold, wet, or windy it might be!

Date:

Astronomy

Oct. 19, 2014 Rise Set
Actual Time 7:25 AM CDT 6:24 PM CDT
Civil Twilight 6:57 AM CDT 6:52 PM CDT
Nautical Twilight 6:25 AM CDT 7:23 PM CDT
Astronomical Twilight 5:54 AM CDT 7:54 PM CDT
Moon 3:18 AM CDT (10/19) 4:16 PM CDT (10/19)
Length of Visible Light 11h 54m
Length of Day
10h 59m
Waning Crescent, 16% of the Moon is Illuminated
Oct 19
Waning Crescent
Oct 23
New
Oct 30
First Quarter
Nov 6
Full
Nov 14
Last Quarter

Hourly Weather History & Observations

Time (CDT) Temp. Windchill Dew Point Humidity Pressure Visibility Wind Dir Wind Speed Gust Speed Precip Events Conditions
12:31 AM 37.9 °F - 37.9 °F 100% 30.22 in 1.8 mi Calm Calm - N/A   Clear
12:41 AM 37.0 °F - 37.0 °F 100% 30.22 in 0.8 mi Calm Calm - N/A   Clear
12:52 AM 37.4 °F - 37.4 °F 100% 30.22 in 2.0 mi Calm Calm - N/A   Clear
12:55 AM 37.0 °F - 37.0 °F 100% 30.24 in 3.0 mi Calm Calm - N/A   Clear
1:55 AM 37.0 °F 32.4 °F 37.0 °F 100% 30.22 in 10.0 mi SE 5.8 mph - N/A   Clear
2:55 AM 37.9 °F 33.5 °F 37.9 °F 100% 30.22 in 10.0 mi South 5.8 mph - N/A   Clear
3:55 AM 39.0 °F 36.8 °F 37.9 °F 96% 30.22 in 10.0 mi SW 3.5 mph - N/A   Clear
4:55 AM 37.9 °F 34.4 °F 37.9 °F 100% 30.22 in 9.0 mi SSW 4.6 mph - N/A   Clear
5:55 AM 37.9 °F 34.4 °F 37.9 °F 100% 30.22 in 10.0 mi SSW 4.6 mph - N/A   Clear
6:55 AM 37.0 °F - 37.0 °F 100% 30.23 in 5.0 mi Calm Calm - N/A   Clear
7:55 AM 37.0 °F 32.4 °F 37.0 °F 100% 30.23 in 7.0 mi SSW 5.8 mph - N/A   Clear
8:55 AM 45.0 °F 39.7 °F 42.1 °F 90% 30.23 in 10.0 mi SSW 10.4 mph - N/A   Clear
9:55 AM 48.0 °F - 44.1 °F 86% 30.22 in 10.0 mi SSW 10.4 mph - N/A   Clear
10:55 AM 55.0 °F - 46.9 °F 74% 30.20 in 10.0 mi SSW 8.1 mph - N/A   Clear
11:55 AM 59.0 °F - 45.0 °F 60% 30.18 in 10.0 mi SW 13.8 mph - N/A   Clear
12:55 PM 62.1 °F - 46.0 °F 56% 30.15 in 10.0 mi SW 13.8 mph 19.6 mph N/A   Clear
1:55 PM 62.1 °F - 46.0 °F 56% 30.12 in 10.0 mi SW 11.5 mph - N/A   Clear
2:55 PM 63.0 °F - 43.0 °F 48% 30.08 in 10.0 mi SW 11.5 mph 18.4 mph N/A   Clear
3:55 PM 63.0 °F - 42.1 °F 46% 30.06 in 10.0 mi SSW 9.2 mph - N/A   Partly Cloudy
4:55 PM 63.0 °F - 46.0 °F 54% 30.05 in 10.0 mi SSW 9.2 mph - N/A   Mostly Cloudy
5:55 PM 59.0 °F - 45.0 °F 60% 30.03 in 10.0 mi SSW 5.8 mph - N/A   Mostly Cloudy
6:55 PM 55.9 °F - 44.1 °F 64% 30.02 in 10.0 mi South 6.9 mph - N/A   Scattered Clouds
7:55 PM 55.0 °F - 46.0 °F 72% 30.03 in 10.0 mi SSW 3.5 mph - N/A   Overcast
8:55 PM 54.0 °F - 44.1 °F 69% 30.01 in 10.0 mi SSW 6.9 mph - N/A   Partly Cloudy
9:55 PM 54.0 °F - 45.0 °F 72% 29.99 in 10.0 mi SSW 8.1 mph - N/A   Clear
10:55 PM 55.0 °F - 46.0 °F 72% 30.00 in 10.0 mi SW 6.9 mph - N/A   Clear
11:55 PM 54.0 °F - 46.9 °F 77% 29.99 in 10.0 mi SW 9.2 mph - N/A   Clear